Location: Asheville, NC
(35.6000°N, 82.5500°W)
Time: 06:07:53
(UTC-04:00)

Vanguard 2 - Pass Details

Date: 13 February 2018
Orbit: 552 x 2940 km, 32.9° (Epoch: 19 May)

Event Time Altitude Azimuth Distance (km) Brightness Sun altitude
Rises 20:02:24 0° 241° (WSW) 4,449 12.4 -23.3°
Reaches altitude 10° 20:06:08 10° 235° (SW) 3,082 11.3 -24.1°
Maximum altitude 20:12:43 43° 167° (SSE) 1,148 8.2 -25.4°
Enters shadow 20:12:53 43° 162° (SSE) 1,141 8.2 -25.5°
